| time (UTC) | temp F | wind direction | speed knots | gust knots | rain 1hr in | rain 24hr in | rain mn in | humidity % | barometer mb |
| 20260503072632 | 71 | 0.0 | 0.0 | 0.00 | 0.00 | 0.00 | 43 | 996.3 | |
| 20260503070627 | 70 | 0.0 | 0.0 | 0.00 | 0.00 | 0.00 | 45 | 996.3 | |
| 20260503054608 | 63 | 0.0 | 0.0 | 0.00 | 0.00 | 0.00 | 52 | 996.2 | |
| 20260503052603 | 64 | 0.0 | 0.0 | 0.00 | 0.00 | 0.00 | 49 | 996.1 | |
| 20260503050558 | 69 | 0.0 | 0.0 | 0.00 | 0.00 | 0.00 | 45 | 996.1 | |
| 20260503044553 | 67 | 0.0 | 0.0 | 0.00 | 0.00 | 0.00 | 48 | 996.0 | |
| 20260503042548 | 57 | 0.0 | 0.0 | 0.00 | 0.00 | 0.00 | 61 | 996.1 | |
| 20260503040543 | 56 | 0.0 | 0.0 | 0.00 | 0.00 | 0.00 | 62 | 996.0 | |
| 20260503032533 | 57 | 0.0 | 0.0 | 0.00 | 0.00 | 0.00 | 61 | 996.0 | |
| 20260503024523 | 57 | 0.0 | 0.0 | 0.00 | 0.00 | 0.00 | 61 | 996.1 | |
| 20260503022518 | 57 | 0.0 | 0.0 | 0.00 | 0.00 | 0.00 | 60 | 996.2 | |
| 20260503020513 | 57 | 0.0 | 0.0 | 0.00 | 0.00 | 0.00 | 59 | 996.3 | |
| 20260503014509 | 58 | 0.0 | 0.0 | 0.00 | 0.00 | 0.00 | 59 | 996.3 | |
| 20260503010459 | 58 | 0.0 | 0.0 | 0.00 | 0.00 | 0.00 | 58 | 996.5 | |
| 20260503004454 | 58 | 0.0 | 0.0 | 0.00 | 0.00 | 0.00 | 58 | 996.7 | |
| 20260503002449 | 59 | 0.0 | 0.0 | 0.00 | 0.00 | 0.00 | 56 | 996.9 | |
| 20260503000444 | 59 | 0.0 | 0.0 | 0.00 | 0.00 | 0.00 | 55 | 997.1 | |
| 20260502234439 | 60 | 0.0 | 0.0 | 0.00 | 0.00 | 0.00 | 55 | 997.3 | |
| 20260502232434 | 60 | 0.0 | 0.0 | 0.00 | 0.00 | 0.00 | 54 | 997.3 | |
| 20260502230429 | 60 | 0.0 | 0.0 | 0.00 | 0.00 | 0.00 | 53 | 997.4 | |
| 20260502224425 | 61 | 0.0 | 0.0 | 0.00 | 0.00 | 0.00 | 52 | 997.5 | |
| 20260502222420 | 61 | 0.0 | 0.0 | 0.00 | 0.00 | 0.00 | 50 | 997.5 | |
| 20260502220415 | 62 | 0.0 | 0.0 | 0.00 | 0.00 | 0.00 | 50 | 997.6 | |
| 20260502214410 | 62 | 0.0 | 0.0 | 0.00 | 0.00 | 0.00 | 49 | 997.6 | |
| 20260502212405 | 62 | 0.0 | 0.0 | 0.00 | 0.00 | 0.00 | 50 | 997.5 | |
| 20260502210400 | 63 | 0.0 | 0.0 | 0.00 | 0.00 | 0.00 | 49 | 997.5 | |
| 20260502204355 | 63 | 0.0 | 0.0 | 0.00 | 0.00 | 0.00 | 49 | 997.5 | |
| 20260502202350 | 63 | 0.0 | 0.0 | 0.00 | 0.00 | 0.00 | 48 | 997.6 | |
| 20260502200345 | 64 | 0.0 | 0.0 | 0.00 | 0.00 | 0.00 | 46 | 997.6 | |
| 20260502194340 | 65 | 0.0 | 0.0 | 0.00 | 0.00 | 0.00 | 44 | 997.6 | |
| 20260502192335 | 65 | 0.0 | 0.0 | 0.00 | 0.00 | 0.00 | 45 | 997.4 | |
| 20260502190330 | 66 | 0.0 | 0.0 | 0.00 | 0.00 | 0.00 | 42 | 997.3 | |
| 20260502184326 | 68 | 0.0 | 0.0 | 0.00 | 0.00 | 0.00 | 38 | 997.1 | |
| 20260502180316 | 72 | 0.0 | 0.0 | 0.00 | 0.00 | 0.00 | 34 | 996.9 | |
| 20260502170301 | 76 | 0.0 | 0.0 | 0.00 | 0.00 | 0.00 | 32 | 997.0 | |
| 20260502164256 | 77 | 0.0 | 0.0 | 0.00 | 0.00 | 0.00 | 31 | 997.1 | |
| 20260502162252 | 77 | 0.0 | 0.0 | 0.00 | 0.00 | 0.00 | 30 | 997.2 | |
| 20260502130157 | 79 | 0.0 | 0.0 | 0.00 | 0.00 | 0.00 | 31 | 999.6 | |
| 20260502122147 | 79 | 0.0 | 0.0 | 0.00 | 0.00 | 0.00 | 33 | 1000.2 | |
| 20260502114138 | 78 | 0.0 | 0.0 | 0.00 | 0.00 | 0.00 | 33 | 1000.8 | |
| 20260502112131 | 76 | 0.0 | 0.0 | 0.00 | 0.00 | 0.00 | 33 | 1000.9 | |
| 20260502110125 | 76 | 0.0 | 0.0 | 0.00 | 0.00 | 0.00 | 35 | 1001.4 | |
| 20260502104120 | 76 | 0.0 | 0.0 | 0.00 | 0.00 | 0.00 | 35 | 1001.6 | |
| 20260502102116 | 75 | 0.0 | 0.0 | 0.00 | 0.00 | 0.00 | 36 | 1001.9 | |
| 20260502100111 | 74 | 0.0 | 0.0 | 0.00 | 0.00 | 0.00 | 37 | 1002.2 |